Погода в Раштатте

Германия     48°51′26″N   8°12′05″E
темп.,
°C
ветер,
м/с
пор.,
м/с
влажн.,
%
обл.,
%
осадки,
мм/ч
давл.,
гПа
погр.,
м
13 мая, чт
чт1323:00+8ююв2282100 0.0 101123
02:00+8юв228280 0.0 101119
05:00+7ю228887 0.0 101016
08:00+10зюз127599 0.0 1009203
11:00+13зюз347124 0.4 1008846
14:00+11юз5787100 2.0 1009925
17:00+8зюз369386 0.7 1010668
20:00+9ююз228813 0.7 100976
14 мая, пт
пт1423:00+7ююв228868 0.0 101028
02:00+6ю229199 0.0 101023
05:00+7ююз239197 0.0 100967
08:00+9юз24815 0.0 1010263
11:00+13з35657 0.1 10101045
14:00+14зюз346427 1.2 10091221
17:00+13з347896 1.9 1010946
20:00+10зюз238993 3.4 101173
15 мая, сб
сб1523:00+7ю229329 0.0 101231
02:00+6ю35955 0.1 1012107
05:00+6ю369581 0.0 1011142
08:00+9ююз2789100 0.0 1011367
11:00+11юз3674100 0.2 1009747
14:00+11юз51076100 1.8 10081482
17:00+8ююз51094100 2.0 1008728
20:00+9ююз599297 2.3 1008663
16 мая, вс
вс1623:00+8ю4109279 0.1 1008377
02:00+8ююз41091100 0.5 1008427
05:00+8ююз3794100 0.7 1007296
08:00+9ююз479597 2.3 1007612
11:00+12юз577628 0.6 10071118
14:00+10юз5994100 3.1 10071038
17:00+12зюз498047 1.2 10061429
20:00+10юз3889100 2.7 1006324
17 мая, пн
пн1723:00+9ююз4119277 1.8 1007425
02:00+8ююз5129372 2.1 1007841
05:00+8юз51393100 0.1 10071273
08:00+7ююз61196100 1.9 10091060
11:00+7юз51197100 2.0 10101164
14:00+8юз51096100 3.7 10101127
17:00+8юз499690 1.9 1011719
20:00+9юз399288 3.4 1011474